Location: Azalea Creek
(37.1280°N, 119.2623°W)
Time: 03:48:39
(UTC+00:00)

Daily predictions for brighter satellites

Satellite Brightness Start Highest point End
(mag) Time Altitude Azimuth Time Altitude Azimuth Time Altitude Azimuth
Starlink-5 placeholder 2.2 01:57:57 10° NW 02:00:24 73° NE 02:03:02 10° SE
Cosmos 1633 3.4 01:58:06 10° SSE 02:01:09 27° E 02:04:14 10° NNE
Lacrosse 5 rocket 3.2 01:58:16 10° W 02:02:06 30° NW 02:06:06 10° NNE
SKYMED 2 3.6 02:00:43 10° NNE 02:05:05 86° E 02:09:25 10° SSW
Meteor 1-26 Rocket 4.4 02:00:45 10° N 02:06:46 74° E 02:12:42 10° SSE
Cosmos 2016 Rocket 4.3 02:02:36 10° SSE 02:08:17 42° E 02:13:59 10° NNE
Okean-O 2.8 02:04:46 10° S 02:09:11 82° WSW 02:13:38 10° NNW
Haruka 3.7 02:10:43 10° WSW 02:13:52 38° S 02:19:34 10° ESE
SEDSat Delta rocket 4.5 02:11:21 10° WSW 02:14:51 28° SSW 02:18:31 10° SE
STARLINK-46 2.5 02:14:27 10° NW 02:16:40 41° NE 02:18:34 12° ESE
YAOGAN 6 3.4 02:14:15 10° S 02:17:43 53° W 02:21:10 10° NNW
Ariane Rocket 4.2 02:16:50 10° ESE 02:20:37 21° ENE 02:24:24 10° NNE
STARLINK-67 4.4 02:20:51 10° WNW 02:23:05 29° SW 02:25:19 10° SSE
NOSS 3-1 (C) 3.9 02:18:34 10° S 02:23:10 31° ESE 02:28:13 10° NE
STARLINK-51 4.5 02:20:01 10° SSW 02:23:34 30° SE 02:26:22 14° ENE
STARLINK-30 4.4 02:21:38 10° SSW 02:25:12 31° SE 02:27:56 15° ENE
STARLINK-72 4.4 02:23:15 10° SSW 02:26:52 33° SE 02:29:34 16° ENE
Cosmos 2228 Rocket 3.2 02:23:48 10° N 02:28:20 82° W 02:32:53 10° S
STARLINK-50 4.3 02:24:52 10° SSW 02:28:30 34° SE 02:31:09 16° ENE
Cosmos 2297 3.7 02:23:07 10° SSW 02:28:46 74° ESE 02:34:25 10° NNE
Cosmos 1943 Rocket 3.1 02:24:35 10° SSE 02:29:05 25° ESE 02:33:35 10° NE
STARLINK-59 4.2 02:26:30 10° SSW 02:30:13 37° SE 02:32:52 17° ENE
STARLINK-26 4.2 02:27:59 10° WSW 02:31:17 42° NW 02:34:36 10° NE
STARLINK-56 4.2 02:28:05 10° SSW 02:31:47 37° SE 02:34:19 18° ENE
Cosmos 1238 Rocket 3.9 02:26:37 10° S 02:32:18 73° E 02:38:46 10° N
Lacrosse 4 Rocket 1.3 02:29:00 10° SSW 02:33:06 74° ESE 02:37:21 10° NNE
STARLINK-73 4.2 02:29:41 10° SSW 02:33:25 38° SE 02:35:53 18° ENE
STARLINK-38 4.1 02:31:19 10° SSW 02:35:04 40° SE 02:37:30 19° ENE
USA 267 3.7 02:29:33 10° ENE 02:35:38 42° SE 02:41:45 10° SSW
STARLINK-65 4.0 02:32:56 10° SSW 02:36:42 41° SE 02:39:05 20° ENE
Cosmos 2173 Rocket 4.4 02:30:49 10° SSW 02:37:07 72° W 02:43:31 10° N
STARLINK-1023 4.4 02:35:46 10° S 02:37:49 18° SE 02:37:56 18° SE
STARLINK-53 3.9 02:34:36 10° SSW 02:38:27 45° SE 02:40:49 21° ENE
Cosmos 968 Rocket 3.4 02:33:41 10° NNW 02:38:52 69° ENE 02:44:03 10° SSE
STARLINK-1007 4.3 02:37:04 10° S 02:39:14 19° SE 02:39:21 19° SE
Cosmos 292 Rocket 3.8 02:35:08 10° SSW 02:39:58 84° WNW 02:44:48 10° NNE
STARLINK-1008 4.2 02:41:28 10° S 02:43:54 22° SE 02:44:00 22° SE
STARLINK-1010 4.2 02:41:45 10° S 02:44:08 22° SE 02:44:11 22° SE
STARLINK-75 3.0 02:40:54 10° SW 02:44:23 86° SE 02:46:28 22° NE
STARLINK-1016 4.2 02:42:10 10° S 02:44:37 22° SE 02:44:42 22° SE
Meteor 1-27 Rocket 4.3 02:40:05 10° NNE 02:44:59 31° ENE 02:49:53 10° SE
STARLINK-1025 4.1 02:42:34 10° S 02:45:02 23° SE 02:45:07 23° SE
STARLINK-1017 4.1 02:43:10 10° S 02:45:39 23° SE 02:45:42 23° SE
STARLINK-1028 4.1 02:43:29 10° S 02:45:59 23° SE 02:46:02 23° SE
STARLINK-1021 4.1 02:44:09 10° S 02:46:40 24° SE 02:46:42 24° SE
STARLINK-1019 4.1 02:44:52 10° S 02:47:23 24° SE 02:47:23 24° SE
STARLINK-1048 4.1 02:44:55 10° S 02:47:27 24° SE 02:47:28 24° SE
STARLINK-22 3.1 02:44:08 10° SW 02:47:34 69° SE 02:49:16 28° ENE
STARLINK-1049 4.0 02:45:31 10° S 02:48:04 25° SE 02:48:04 25° SE
STARLINK-1012 4.0 02:45:33 10° S 02:48:05 25° SE 02:48:05 25° SE
STARLINK-1051 4.0 02:46:12 10° S 02:48:44 25° SE 02:48:44 25° SE
STARLINK-41 3.0 02:45:29 10° SW 02:48:58 79° SE 02:50:43 27° NE
Cosmos 2369 Rocket 2.9 02:44:19 10° SSE 02:49:06 30° ESE 02:51:55 20° ENE
STARLINK-1026 4.0 02:46:54 10° S 02:49:27 26° SE 02:49:27 26° SE
STARLINK-58 3.2 02:45:59 10° SW 02:49:31 67° SE 02:51:10 29° ENE
STARLINK-1013 4.0 02:47:37 10° S 02:50:10 26° SE 02:50:10 26° SE
Cosmos 1503 Rocket 3.9 02:45:39 10° NNW 02:50:57 73° ENE 02:56:10 10° SSE
STARLINK-1009 4.0 02:48:19 10° S 02:50:52 27° SE 02:50:52 27° SE
STARLINK-62 3.1 02:47:40 10° SW 02:51:13 73° SE 02:52:51 30° ENE
Cosmos 1805 Rocket 4.0 02:47:15 10° SSW 02:51:37 64° W 02:55:59 10° N
STARLINK-1015 3.9 02:49:01 10° SSW 02:51:37 27° SE 02:51:37 27° SE
STARLINK-34 3.1 02:50:26 10° SW 02:53:58 78° SE 02:55:29 32° NE
Cosmos 1782 3.7 02:50:44 10° NNW 02:54:39 52° W 02:58:31 10° S
Cosmos 2061 Rocket 4.3 02:50:26 10° SSW 02:56:51 73° W 03:03:16 10° N
Cosmos 1862 3.2 02:53:24 10° S 02:57:25 89° WNW 03:01:26 10° N
Abrixas rocket 3.4 02:55:23 10° NNW 02:57:39 24° NNE 02:57:39 24° NNE
STARLINK-61 3.9 02:55:11 10° WSW 02:59:01 59° NW 03:01:14 23° NNE
Cosmos 2082 Rocket 2.6 02:53:29 10° NNW 02:59:05 65° WSW 03:04:40 10° S
Sich 1 3.2 02:54:51 10° SSW 02:59:09 75° W 03:03:27 10° N
STARLINK-33 3.6 02:58:50 10° WSW 03:02:03 53° NW 03:03:20 30° NNE
SL-4 R/B 3.4 02:58:17 10° NNW 03:02:17 27° NNE 03:03:06 25° NE
STARLINK-66 3.7 03:00:29 10° WSW 03:03:40 49° NW 03:04:54 31° NNE
Cosmos 1707 Rocket 3.4 03:00:23 10° N 03:04:49 75° E 03:09:16 10° SSE
STARLINK-55 3.9 03:02:22 10° WSW 03:05:32 46° NW 03:06:44 30° NNE
SJ-11-01 4.3 03:01:09 10° SSE 03:05:41 52° ENE 03:10:14 10° N
STARLINK-28 4.1 03:04:10 10° WSW 03:07:17 40° NW 03:08:28 28° N
CRYOSAT 2 4.2 03:02:27 10° SSE 03:07:18 70° E 03:12:11 10° N
STARLINK-1014 4.0 03:04:46 10° SSW 03:07:14 33° SSE 03:07:14 33° SSE
USA 229 DEB 3.5 03:03:02 10° SSW 03:09:29 78° ESE 03:15:37 13° NE
USA 229 3.5 03:03:09 10° SSW 03:09:36 78° ESE 03:15:39 13° NE
STARLINK-24 3.4 03:06:33 10° SW 03:10:33 88° NW 03:11:45 44° NE
STARLINK 1040 3.6 03:08:24 10° SW 03:10:22 39° SSW 03:10:22 39° SSW
OE (NEXTSAT) 4.5 03:08:28 10° WSW 03:11:56 67° NNW 03:12:29 55° NNE
CZ-4 R/B 3.9 03:11:06 10° SSW 03:14:35 25° W 03:18:04 10° NW
Cosmos 1725 Rocket 4.3 03:08:45 10° SSW 03:14:52 67° W 03:21:02 10° N
HJ-1C 3.5 03:13:25 10° S 03:16:43 73° W 03:20:02 10° NNW
NOSS 3-1 (A) 3.3 03:11:40 10° S 03:16:47 51° ESE 03:18:31 38° ENE
STARLINK-81 3.5 03:13:47 10° SW 03:17:48 83° NW 03:18:36 56° NE
STARLINK-64 3.9 03:16:03 10° WSW 03:19:33 49° NW 03:20:15 42° N
STARLINK-54 3.6 03:15:39 10° SW 03:19:39 73° NW 03:20:30 52° NNE
STARLINK-42 4.1 03:16:55 10° WSW 03:20:03 39° NW 03:20:33 37° NNW
STARLINK-77 3.5 03:17:06 10° SW 03:21:07 78° NW 03:21:46 59° NNE
CZ-2C R/B 3.6 03:19:49 39° ESE 03:21:11 45° ENE 03:26:42 10° N
STARLINK-25 3.6 03:18:46 10° SW 03:22:47 75° NW 03:23:23 60° NNE
ADEOS Rocket 4.0 03:16:39 10° N 03:24:14 63° WNW 03:31:50 10° SSW
STARLINK-71 3.8 03:20:41 10° WSW 03:24:40 64° NW 03:25:20 54° N
Cosmos 1777 Rocket 4.5 03:20:27 10° N 03:24:52 41° NE 03:24:52 41° NE
STARLINK-79 3.7 03:22:05 10° SW 03:26:05 70° NW 03:26:33 61° N
Cosmos 1607 4.0 03:20:59 10° NNW 03:27:13 59° ENE 03:28:57 44° ESE
STARLINK-78 3.7 03:23:46 10° SW 03:27:45 67° NW 03:28:11 61° N
Tsikada Rocket 4.2 03:21:39 10° N 03:28:01 77° W 03:34:24 10° S
STARLINK-57 3.8 03:25:32 10° WSW 03:29:31 61° NW 03:29:56 57° N
STARLINK-49 3.8 03:27:04 10° WSW 03:31:03 62° NW 03:31:20 60° NNW
STARLINK-27 3.8 03:28:46 10° WSW 03:32:44 60° NW 03:32:57 59° NNW
H-2A R/B 2.0 03:31:17 43° SE 03:32:56 69° ENE 03:38:17 10° N
STARLINK-74 3.9 03:30:26 10° WSW 03:34:23 58° NW 03:34:32 58° NNW
STARLINK-39 4.0 03:32:04 10° WSW 03:36:01 56° NW 03:36:07 56° NNW
STARLINK-31 4.1 03:33:46 10° WSW 03:37:41 54° NW 03:37:43 54° NW
ARGOS 3.0 03:38:32 65° E 03:38:48 66° ENE 03:44:11 10° N
STARLINK-69 4.3 03:35:39 10° WSW 03:39:32 48° NW 03:39:35 48° NW
STARLINK-21 4.2 03:37:06 10° WSW 03:40:55 50° NW 03:40:55 50° NW
STARLINK-45 4.5 03:39:04 10° WSW 03:42:53 43° NW 03:42:53 43° NW
MOS 1 4.2 03:39:44 18° SSE 03:44:02 88° WSW 03:49:44 10° NNW
STARLINK-70 4.5 03:40:38 10° WSW 03:44:19 44° NW 03:44:19 44° NW
Cosmos 921 Rocket 3.8 03:42:18 10° SSW 03:46:40 51° WNW 03:48:51 27° N
Cosmos 1812 3.9 03:47:43 10° NNW 03:50:57 40° WNW 03:50:57 40° WNW
Ariane Rocket 4.2 03:54:28 10° S 03:59:15 41° W 04:04:05 10° NNW
FALCON 9 R/B 3.1 03:45:20 10° W 04:01:32 55° SSW 04:02:53 48° SSE
Cosmos 1943 Rocket 3.4 04:07:21 10° SW 04:12:34 39° WNW 04:15:36 22° N
USA 267 3.8 04:16:55 42° N 04:18:40 52° NW 04:24:57 10° WSW
Cosmos 2369 Rocket 3.6 04:27:53 10° SW 04:32:58 35° WNW 04:33:51 33° NW
SL-16 R/B 4.2 11:29:15 24° NE 11:29:15 24° NE 11:31:36 10° NE
NOSS 3-1 (C) 4.4 11:46:37 50° N 11:48:40 65° NE 11:57:20 10° SE
